Showing default

EXPLORER 30, 1738

Orbit data source: Space-Track

EXPLORER 30, 1738 is a payload satellite owned by NRL (US) in LEO that was launched on Fri, 19 Nov 1965 UTC via an SCOUT X-4 launch vehicle from the Wallops Island (WLPIS). Payload-class satellites include a variety of spacecraft equipped with specific instruments for various scientific and technological missions. These include communications satellites like Starlink; space stations such as the ISS; scientific satellites like the Hubble; Earth observation satellites from companies like Planet Labs, Umbra, and HawkEye 360; GPS; miniature CubeSats for education and research; and military/defense satellites.

Loading next visibility...
Identifier
1738, 1965-093A
Orbit
LEO
Country
Flag of USUS
Related business
Manufacturer
NRL
Mission
Spacecraft
Bus & Motor
NRL 24", Unknown motor
Mass
57 kg wet, 57 kg dry
Launch date (UTC)
1965-11-19 (60 years ago)
Launch vehicle
SCOUT X-4
Launch site
Wallops Island (WLPIS)
Object type
Payload
Rocket body
Debris
Shape & HBR
Unknown
Radar Cross Section
Medium (>0.1 m² and <1 m²)

Expand to show TLE details & history
Last TLE update: 13 hours ago

TLE from 13 hours ago
0 EXPLORER 30
1  1738U 65093A   25312.61417160  .00000197  00000-0  98196-4 0  9995
2  1738  59.7075 275.2282 0128167 189.6214 170.2368 14.41692623124583
Epoch: 2025-11-08T14:44Z
TLE epoch observation values (Epoch: 2025-11-08T14:44:24.426Z)
Latitude
0.00001°
Longitude
6.08517°
Altitude
844.535 km
Speed
7.384 km/s
True Right ascension
18h 20m 54s
True Declination
0° 00' 00"
Sunlit
Object was in daylight at epoch
Visualization orbit readout
Latitude
Unknown
Longitude
Unknown
Altitude
Unknown
Speed
Unknown
Apparent Right ascension
Unknown
Apparent Declination
Unknown
Sunlit
N/A
Visualization observer readout
Local Sidereal Time
00:21:06
Azimuth
Unknown
Elevation
Unknown
Doppler factor
Unknown
Orbital elements
Apogee altitude
843.572 km
Perigee altitude
660.798 km
Semi-major axis
7,130.322 km
Eccentricity
0.01282
Inclination
59.7075°
RAAN
275.2282°
Arg. of periapsis
189.6214°
True anomaly
170.48198°
Mean anomaly
170.2368°
Eccentric anomaly
170.35977°
Mean motion
3.60479 °/min
Orbital period
99.87 mins
BSTAR
0.000098196
Loading maneuver chart data...
Computing Atmospheric mass density...
Loading historical data...
Loading historical data...
Loading historical data...
Loading historical data...
Loading historical data...
Loading historical data...
Loading historical data...
Other satellites on launch #93 in the year 1965 (1965-11-19 UTC)

Documentation

Showing up to 5 results
|